Regional Weather Roundup
Issued by NWS Newport/Morehead, NC

Current Version | Previous Version | Graphics & Text | Print | Product List | Glossary Off
Versions: 1 2 3 4 5 6 7 8 9 10 11 12 13 14 15 16 17 18 19 20 21 22 23 24 25 26 27 28 29 30 31 32 33 34 35 36 37 38 39 40 41 42 43 44 45 46 47 48 49 50

000
ASUS42 KMHX 301413
RWRMHX
WEATHER ROUNDUP FOR EASTERN NORTH CAROLINA
NATIONAL WEATHER SERVICE NEWPORT/MOREHEAD CITY NC
1000 AM EDT FRI SEP 30 2016

NOTE: "FAIR" INDICATES FEW OR NO CLOUDS BELOW 12,000 FEET
WITH NO SIGNIFICANT WEATHER AND/OR OBSTRUCTIONS TO VISIBILITY

NCZ015>017-031-032-045>047-102-103-301500-
NORTH COAST

CITY           SKY/WX    TMP DP  RH WIND       PRES   REMARKS
EDENTON        CLOUDY    76  76 100 E3        30.07R FOG
ELIZABETH CITY SUNNY     78  73  84 E7        30.07S
KITTY HAWK     CLOUDY    81  79  95 E5        30.07R
MANTEO         PTSUNNY   80  76  87 E5        30.07S

$$

NCZ045>047-081-094-103-104-301500-
CENTRAL COAST

CITY           SKY/WX    TMP DP  RH WIND       PRES   REMARKS
FRISCO         PTSUNNY   83  73  72 SE7       30.07R

$$

NCZ095-097-098-100-101-301500-
SOUTHERN COAST

CITY           SKY/WX    TMP DP  RH WIND       PRES   REMARKS
BEAUFORT       CLOUDY    80  73  79 CALM      30.06R
CEDAR ISLAND   NOT AVBL
JACKSONVILLE   LGT RAIN  71  67  87 SE5       30.02F
PINEY ISLAND   CLOUDY   N/A N/A N/A E6        30.06R
WILMINGTON     TSTM      74  72  93 E13       30.03R


$$

NCZ011>013-027>030-043-044-078>080-089-090>093-098-301500-
COASTAL PLAIN

CITY           SKY/WX    TMP DP  RH WIND       PRES   REMARKS
AHOSKIE        CLOUDY    70  70  99 NE6       30.07R FOG
CLINTON        CLOUDY    72  72 100 CALM      30.04R
ELIZABETHTOWN  MOSUNNY   72  72 100 E3        30.01R
GOLDSBORO      CLOUDY    74  74 100 E5        30.01R
GREENVILLE     LGT RAIN  73  73 100 E7        30.06S
HAVELOCK       PTSUNNY   78  74  87 SE10      30.07R THUNDER
KENANSVILLE    PTSUNNY   73  73 100 CALM      30.03S FOG
KINSTON        DRIZZLE   75  73  94 E3        30.03S
NEW BERN       SUNNY     78  73  84 SE5       30.06R
RICHLANDS      CLOUDY    73  70  90 S7        30.04R
ROCKY MOUNT    FOG       73  73 100 E6        30.04R VSB 1
WASHINGTON     CLOUDY    75  75 100 E6        30.06R FOG
WHITEVILLE     NOT AVBL

$$

AMZ130-135-150-152-154-156-158-170-250-252-270-ANZ085-086-088-633-658-670-301500-
MARINE OBSERVATIONS

STATION/POSITION TIME  TEMP    WIND        PRES    WAVE   SWELL
                       AIR SEA DIR/SP/G            HT/PER HT/PER
                 (UTC) (F)     (DEG/KT/KT) (MB)    (FT/S) (FT/S)
CHESAPEAKE LIGHT NOT AVBL
64 E VA BEACH    1350   74 74  110/  2/  4 1018.4    7/10   7/10
DUCK             1342   76 76   70/  9/  9 1017.8
2 E DUCK         1341      76                N/A     6/10   2/11
OREGON INLET     1342   78 78   50/  4/  7 1018.3
13E OREGON INLT  1400      76                N/A     6/10   7/10
HATTERAS CG      1342   79 79   90/  5/  7 1017.8
DIAMOND BUOY     1350   80 77  160/  8/ 10 1018.0    4/10   3/10
CAPE LOOKOUT     1400   80     180/  6/  6 1017.4
BEAUFORT LAB     1342   79 77  240/  2/  5 1017.2
30 SE NEW RVR IN 1308   83 82  190/ 12/ 16 1016.6
30 SE NEW RVR IN 1355      82                N/A     4/ 6   2/11
27 SE WRIGHTSVLE 1308   83 81  180/ 12/ 16 1016.5
5 SE WRIGHTSVLE  1308   79 80  140/ 16/ 21 1017.7
225 S CAPE HAT   1350   80 83  190/ 10/ 14 1019.1    4/10   3/10
41 SE CHARLESTON 1350   81 82  210/ 12/ 14 1014.8    3/ 5   2/10

$$



USA.gov is the U.S. government's official web portal to all federal, state and local government web resources and services.